Location: Newark
(27.9675°N, 86.8869°E)
Time: 07:00:17
(UTC+00:00)

Vanguard 3 - Pass Details

Date: 28 October 2019
Orbit: 508 x 3263 km, 33.3° (Epoch: 11 November)

Event Time Altitude Azimuth Distance (km) Brightness Sun altitude
Rises 13:38:49 0° 237° (WSW) 5,552 12.2 -28.6°
Reaches altitude 10° 13:43:14 10° 235° (SW) 4,085 11.3 -29.6°
Enters shadow 13:52:27 61° 176° (S) 1,281 7.9 -31.6°
Maximum altitude 13:52:55 62° 157° (SSE) 1,235 - -31.7°
Drops below altitude 10° 13:58:23 10° 77° (ENE) 2,367 - -32.9°
Sets 14:00:21 0° 74° (ENE) 3,097 - -33.4°
